Weather History for KCMX - May, 2013

Change the Weather History Date:

Wednesday, May 8, 2013

  Actual Average Record
Temperature  
Mean Temperature 60 °F -  
Max Temperature 78 °F 57 °F 83 °F (1993)
Min Temperature 42 °F 37 °F 25 °F (1954)
Degree Days  
Heating Degree Days 6    
Growing Degree Days 10 (Base 50)    
Moisture  
Dew Point 40 °F    
Average Humidity 53    
Maximum Humidity 82    
Minimum Humidity 25    
Precipitation  
Precipitation 0.00 in - - ()
Sea Level Pressure  
Sea Level Pressure 30.00 in    
Wind  
Wind Speed 3 mph (North)    
Max Wind Speed 12 mph    
Max Gust Speed -    
Visibility 10 miles    
Events      
Averages and records for this station are not official NWS values.
T = Trace of Precipitation, MM = Missing Value Source: NWS Daily Summary

Daily Weather History Graph

Daily Weather History Graph

Search for Another Location

Airport or City:

Trip Planner

Search our weather history database for the weather conditions in past years. The results will help you decide how hot, cold, wet, or windy it might be!

Date:

Astronomy

May. 08, 2013 Rise Set
Actual Time 6:26 AM EDT 9:14 PM EDT
Civil Twilight 5:51 AM EDT 9:49 PM EDT
Nautical Twilight 5:07 AM EDT 10:34 PM EDT
Astronomical Twilight 4:14 AM EDT 11:28 PM EDT
Moon 5:40 AM EDT (5/8) 8:09 PM EDT (5/8)
Length of Visible Light 15h 58m
Length of Day
14h 47m
Waning Crescent, 2% of the Moon is Illuminated
May 8
Waning Crescent
May 9
New
May 18
First Quarter
May 25
Full
May 31
Last Quarter

Hourly Weather History & Observations

Time (EDT) Temp. Windchill Dew Point Humidity Pressure Visibility Wind Dir Wind Speed Gust Speed Precip Events Conditions
12:53 AM 46.9 °F - 37.9 °F 71% 30.00 in 10.0 mi Calm Calm - N/A   Clear
1:53 AM 46.0 °F - 37.9 °F 73% 30.00 in 10.0 mi Calm Calm - N/A   Scattered Clouds
2:53 AM 42.1 °F - 37.0 °F 82% 29.99 in 10.0 mi Calm Calm - N/A   Mostly Cloudy
3:53 AM 48.9 °F - 37.0 °F 64% 29.98 in 10.0 mi Calm Calm - N/A   Scattered Clouds
4:53 AM 48.0 °F - 37.9 °F 68% 29.98 in 10.0 mi Calm Calm - N/A   Clear
5:53 AM 44.1 °F - 37.0 °F 76% 29.98 in 10.0 mi Calm Calm - N/A   Overcast
6:53 AM 44.1 °F 42.5 °F 37.9 °F 79% 29.99 in 10.0 mi West 3.5 mph - N/A   Scattered Clouds
7:53 AM 54.0 °F - 39.9 °F 59% 29.99 in 10.0 mi NW 9.2 mph - N/A   Mostly Cloudy
8:53 AM 57.9 °F - 39.9 °F 51% 30.00 in 10.0 mi NW 9.2 mph - N/A   Overcast
9:53 AM 61.0 °F - 39.9 °F 46% 30.01 in 10.0 mi NW 6.9 mph - N/A   Overcast
10:53 AM 64.9 °F - 39.9 °F 40% 30.01 in 10.0 mi West 10.4 mph - N/A   Overcast
11:53 AM 69.1 °F - 41.0 °F 36% 30.01 in 10.0 mi WNW 8.1 mph - N/A   Partly Cloudy
12:53 PM 72.0 °F - 41.0 °F 33% 30.01 in 10.0 mi WNW 8.1 mph - N/A   Clear
1:53 PM 75.0 °F - 41.0 °F 29% 30.01 in 10.0 mi Variable 5.8 mph - N/A   Clear
2:53 PM 77.0 °F - 39.9 °F 26% 29.99 in 10.0 mi NNW 4.6 mph - N/A   Clear
3:53 PM 75.9 °F - 37.9 °F 25% 29.99 in 10.0 mi Variable 3.5 mph - N/A   Clear
4:53 PM 69.1 °F - 44.1 °F 40% 29.99 in 10.0 mi East 8.1 mph - N/A   Clear
5:53 PM 66.9 °F - 42.1 °F 40% 29.99 in 10.0 mi East 5.8 mph - N/A   Clear
6:53 PM 66.9 °F - 41.0 °F 39% 30.00 in 10.0 mi ENE 3.5 mph - N/A   Clear
7:53 PM 61.0 °F - 42.1 °F 50% 30.00 in 10.0 mi North 11.5 mph - N/A   Partly Cloudy
8:53 PM 59.0 °F - 41.0 °F 51% 30.02 in 10.0 mi NE 8.1 mph - N/A   Mostly Cloudy
9:53 PM 57.0 °F - 43.0 °F 59% 30.03 in 10.0 mi NE 9.2 mph - N/A   Overcast
10:53 PM 57.0 °F - 44.1 °F 62% 30.03 in 10.0 mi ENE 5.8 mph - N/A   Overcast
11:53 PM 54.0 °F - 45.0 °F 72% 30.05 in 10.0 mi Calm Calm - N/A   Overcast